Waarnemingen

Advertentie
Mijn weer
Svanberga, Zweden (2490): temperatuur & dauwpunt: 22.10.2020 00:00:00 - 28.10.2020 00:00:00 (CET)Svanberga, Zweden (2490): windsnelheid & windstoten: 22.10.2020 00:00:00 - 28.10.2020 00:00:00 (CET)Svanberga, Zweden (2490): windrichting: 22.10.2020 00:00:00 - 28.10.2020 00:00:00 (CET)Svanberga, Zweden (2490): luchtdruk: 22.10.2020 00:00:00 - 28.10.2020 00:00:00 (CET)Svanberga, Zweden (2490): zicht: 22.10.2020 00:00:00 - 28.10.2020 00:00:00 (CET)Svanberga, Zweden (2490): neerslag: 22.10.2020 00:00:00 - 28.10.2020 00:00:00 (CET)
Datum & Tijd tt [°C] td [°C] ff [km/u] ff [kn] fx [km/u] fx [kn] dd ppp [hPa] vv [km] rr [mm]
28.10.2020 00:00:00 - - - - - - - - - -
27.10.2020 23:00:00 8,5 8,1 3 2 11 6 ZZW 1001,3 21 0,0
27.10.2020 22:00:00 9,0 8,2 4 2 13 7 Z 1001,5 20 0,0
27.10.2020 21:00:00 8,9 8,1 4 2 15 8 ZZO 1001,8 16 0,0
27.10.2020 20:00:00 8,3 7,7 4 2 9 5 ZZO 1002,0 17 0,0
27.10.2020 19:00:00 8,0 7,2 4 2 11 6 ZZO 1002,5 21 0,0
27.10.2020 18:00:00 7,9 7,1 4 2 11 6 Z 1002,7 32 0,0
27.10.2020 17:00:00 8,4 7,3 3 2 12 7 Z 1002,9 32 0,0
27.10.2020 16:00:00 9,5 7,8 6 3 19 10 ZZW 1002,8 43 0,0
27.10.2020 15:00:00 10,4 9,3 2 1 9 5 Z 1002,6 44 0,0
27.10.2020 14:00:00 10,5 9,1 4 2 13 7 Z 1002,3 50 0,0
27.10.2020 13:00:00 10,6 9,0 4 2 18 10 ZZW 1002,2 48 0,0
27.10.2020 12:00:00 10,5 8,8 5 3 19 11 ZZW 1002,5 46 0,0
27.10.2020 11:00:00 10,2 9,1 4 2 15 8 ZW 1002,0 42 0,0
27.10.2020 10:00:00 9,7 8,9 5 3 15 8 ZW 1002,0 38 0,0
27.10.2020 09:00:00 9,5 9,0 4 2 15 8 WZW 1001,2 32 0,0
27.10.2020 08:00:00 9,2 9,1 3 1 9 5 ZW 1000,8 18 0,0
27.10.2020 07:00:00 9,5 9,2 3 2 10 5 W 1000,2 10 0,1
27.10.2020 06:00:00 10,2 9,9 4 2 17 9 WZW 999,6 6 0,2
27.10.2020 05:00:00 10,5 10,0 5 3 19 10 Z 999,5 4,3 0,0
27.10.2020 04:00:00 10,5 10,2 5 3 21 12 Z 999,8 3,0 0,0
27.10.2020 03:00:00 10,5 10,2 7 4 19 10 ZZO 1000,4 3,2 0,0
27.10.2020 02:00:00 10,5 10,2 6 3 16 9 Z 1001,1 4,0 0,0
27.10.2020 01:00:00 10,5 10,2 4 2 16 8 ZZO 1001,4 3,6 0,3
27.10.2020 00:00:00 10,7 10,4 6 3 23 13 Z 1002,1 4,0 0,1
26.10.2020 23:00:00 10,7 10,5 5 3 19 10 Z 1002,4 2,9 0,1
26.10.2020 22:00:00 10,7 10,5 7 4 19 10 ZZO 1002,6 4,1 0,1
26.10.2020 21:00:00 10,8 10,6 6 4 15 8 ZO 1002,8 3,8 1,6
26.10.2020 20:00:00 10,9 10,7 5 3 12 7 ZO 1003,1 3,2 1,2
26.10.2020 19:00:00 10,8 10,6 4 2 11 6 ZZO 1003,4 3,6 0,2
26.10.2020 18:00:00 10,6 10,4 4 2 12 6 Z 1003,2 7 0,0
26.10.2020 17:00:00 10,7 10,5 5 3 12 6 ZZO 1003,2 6 0,0
26.10.2020 16:00:00 11,0 10,5 3 2 11 6 ZZO 1003,0 7 0,0
26.10.2020 15:00:00 11,4 10,9 4 2 7 4 ZO 1002,8 10 0,0
26.10.2020 14:00:00 11,7 10,9 2 1 6 3 ZZO 1003,1 15 0,0
26.10.2020 13:00:00 11,8 10,9 2 1 14 7 ZZW 1003,4 23 0,0
26.10.2020 12:00:00 11,4 10,3 5 3 13 7 ZZW 1003,0 46 0,0
26.10.2020 11:00:00 11,4 10,5 2 1 10 5 ZW 1002,4 36 0,0
26.10.2020 10:00:00 11,3 11,0 3 1 13 7 ZZW 1002,2 21 0,0
26.10.2020 09:00:00 11,0 10,8 0 0 12 6 N 1001,6 18 0,0
26.10.2020 08:00:00 10,8 10,6 3 2 11 6 Z 1001,3 13 0,2
26.10.2020 07:00:00 10,5 10,2 3 2 12 7 Z 1001,0 34 0,2
26.10.2020 06:00:00 11,0 10,5 5 3 21 11 ZZW 1000,8 36 0,1
26.10.2020 05:00:00 11,4 11,2 6 3 23 12 Z 1000,5 16 0,5
26.10.2020 04:00:00 11,1 10,9 5 3 14 8 ZZO 1000,6 9 1,7
26.10.2020 03:00:00 11,0 10,8 4 2 16 9 ZZO 1000,9 4,2 2,8
26.10.2020 02:00:00 11,1 10,8 4 2 16 9 Z 1001,3 4,8 1,1
26.10.2020 01:00:00 11,1 10,6 4 2 17 9 Z 1001,6 8 0,1
26.10.2020 00:00:00 11,4 10,6 5 3 18 10 Z 1001,7 11 0,1
25.10.2020 23:00:00 11,5 10,4 7 4 19 10 Z 1002,0 18 0,0
25.10.2020 22:00:00 11,3 10,4 6 3 19 10 Z 1001,8 17 0,1
25.10.2020 21:00:00 11,5 10,2 7 4 24 13 Z 1001,9 19 0,0
25.10.2020 20:00:00 11,7 10,3 9 5 27 14 Z 1002,0 27 0,0
25.10.2020 19:00:00 11,8 10,4 10 5 29 15 Z 1001,8 25 0,0
25.10.2020 18:00:00 11,7 10,3 7 4 32 17 ZZO 1002,1 28 0,0
25.10.2020 17:00:00 11,8 10,2 10 5 27 15 ZZO 1002,3 36 0,0
25.10.2020 16:00:00 11,7 10,3 8 4 30 16 ZZO 1002,7 24 0,0
25.10.2020 15:00:00 11,7 10,4 9 5 24 13 ZZO 1002,8 20 0,0
25.10.2020 14:00:00 11,4 10,6 7 4 25 13 ZZO 1003,3 12 0,0
25.10.2020 13:00:00 10,8 10,0 7 4 22 12 ZZO 1004,0 14 0,0
25.10.2020 12:00:00 10,2 9,4 9 5 23 12 ZZO 1004,9 17 0,1
25.10.2020 11:00:00 9,8 9,0 7 4 20 11 ZZO 1005,3 30 0,0
25.10.2020 10:00:00 8,8 8,3 7 4 18 10 ZO 1005,8 38 0,0
25.10.2020 09:00:00 7,5 7,4 9 5 20 11 ZO 1006,0 50 0,0
25.10.2020 08:00:00 5,5 5,4 6 3 14 8 ZZO 1006,4 50 0,0
25.10.2020 07:00:00 4,2 4,1 6 3 10 6 OZO 1006,7 30 0,0
25.10.2020 06:00:00 4,2 4,1 6 3 14 8 ZO 1007,2 7 0,0
25.10.2020 05:00:00 3,7 3,6 3 2 11 6 ZZO 1007,5 4,3 0,0
25.10.2020 04:00:00 3,1 3,0 3 1 9 5 ZZO 1007,7 0,7 0,0
25.10.2020 03:00:00 2,8 2,7 4 2 11 6 ZZO 1007,7 2,1 0,0
25.10.2020 02:00:00 2,5 2,4 6 3 10 6 OZO 1007,3 2,2 0,0
25.10.2020 01:00:00 - - - - - - - - - -
25.10.2020 00:00:00 2,1 2,0 0 0 6 3 N 1007,4 15 0,0
24.10.2020 23:00:00 2,1 1,8 3 2 13 7 ZW 1007,6 16 0,0
24.10.2020 22:00:00 3,3 2,9 4 2 11 6 W 1007,1 50 0,0
24.10.2020 21:00:00 4,2 3,8 4 2 13 7 NW 1006,4 50 0,0
24.10.2020 20:00:00 4,3 4,0 4 2 16 9 N 1005,6 50 0,0
24.10.2020 19:00:00 5,1 5,0 5 3 15 8 NW 1005,1 17 0,0
24.10.2020 18:00:00 5,2 5,1 6 3 13 7 NNW 1003,8 2,8 0,2
24.10.2020 17:00:00 5,4 5,1 5 3 14 7 NNO 1002,9 3,5 0,0
24.10.2020 16:00:00 5,2 4,9 7 4 19 11 NO 1002,1 4,6 0,1
24.10.2020 15:00:00 5,7 5,6 8 5 17 9 NO 1001,7 8 0,3
24.10.2020 14:00:00 6,4 6,3 4 2 16 9 NO 1001,1 4,0 0,3
24.10.2020 13:00:00 5,9 5,7 4 2 12 6 NNO 1001,3 4,6 0,1
24.10.2020 12:00:00 5,0 4,9 3 2 18 10 W 1001,6 3,1 0,6
24.10.2020 11:00:00 4,2 4,1 11 6 22 12 O 1001,6 4,3 1,2
24.10.2020 10:00:00 2,2 2,1 10 6 18 10 O 1002,3 6 0,7
24.10.2020 09:00:00 0,3 0,2 7 4 9 5 O 1003,1 8 0,2
24.10.2020 08:00:00 -0,6 -0,7 3 1 4 2 O 1004,0 12 0,0
24.10.2020 07:00:00 -1,3 -1,4 3 2 4 2 ONO 1004,0 10 0,0
24.10.2020 06:00:00 -1,7 -1,8 2 1 5 3 O 1004,3 0,4 0,0
24.10.2020 05:00:00 -2,4 -2,5 0 0 5 3 N 1004,7 0,4 0,0
24.10.2020 04:00:00 -2,1 -2,2 0 0 4 2 N 1005,2 21 0,0
24.10.2020 03:00:00 -2,8 -2,9 0 0 3 2 N 1005,5 21 0,0
24.10.2020 02:00:00 -3,1 -3,4 0 0 3 2 N 1005,9 31 0,0
24.10.2020 01:00:00 -2,9 -3,2 0 0 8 4 N 1006,0 25 0,0
24.10.2020 00:00:00 -3,1 -3,5 0 0 6 3 N 1006,2 37 0,0
23.10.2020 23:00:00 -2,8 -3,1 0 0 4 2 N 1006,2 31 0,0
23.10.2020 22:00:00 -2,2 -2,3 0 0 5 3 N 1006,3 44 0,0
23.10.2020 21:00:00 -1,8 -1,9 0 0 5 3 N 1006,4 31 0,0
23.10.2020 20:00:00 -1,3 -1,6 0 0 5 3 N 1006,2 27 0,0
23.10.2020 19:00:00 -1,7 -2,1 3 1 9 5 ZW 1006,0 49 0,0
23.10.2020 18:00:00 -0,3 -1,4 3 2 12 6 ZZW 1005,7 50 0,0
23.10.2020 17:00:00 2,2 -0,6 5 3 14 8 NW 1005,4 50 0,0
23.10.2020 16:00:00 3,0 -0,1 6 3 17 9 WNW 1005,0 50 0,0
23.10.2020 15:00:00 3,7 -0,1 9 5 22 12 WNW 1004,6 50 0,0
23.10.2020 14:00:00 4,1 1,3 7 4 19 11 WNW 1003,8 50 0,0
23.10.2020 13:00:00 4,3 1,5 7 4 21 11 NW 1003,3 50 0,0
23.10.2020 12:00:00 4,5 1,7 9 5 22 12 NW 1002,1 50 0,0
23.10.2020 11:00:00 4,4 2,9 8 5 19 10 NW 1001,4 50 0,0
23.10.2020 10:00:00 4,5 3,2 6 3 22 12 NNW 1000,1 50 0,0
23.10.2020 09:00:00 3,9 2,9 9 5 20 11 NNW 999,3 50 0,1
23.10.2020 08:00:00 3,8 3,2 8 4 25 14 NNW 998,4 50 0,0
23.10.2020 07:00:00 5,0 4,6 7 4 21 12 NNW 997,1 2,5 0,1
23.10.2020 06:00:00 6,0 5,6 6 4 19 11 N 996,0 6 0,3
23.10.2020 05:00:00 6,8 6,5 5 3 13 7 NO 995,3 3,6 0,9
23.10.2020 04:00:00 7,2 6,8 4 2 14 7 NNW 995,2 7 1,6
23.10.2020 03:00:00 10,1 9,5 6 3 20 11 W 994,6 22 0,0
23.10.2020 02:00:00 10,3 9,5 8 4 27 14 WZW 994,7 12 0,0
23.10.2020 01:00:00 10,7 10,1 9 5 25 13 WZW 994,9 50 0,1
23.10.2020 00:00:00 11,0 10,5 7 4 26 14 WZW 995,0 18 0,4
22.10.2020 23:00:00 11,4 11,1 8 4 22 12 WZW 995,1 46 0,1
22.10.2020 22:00:00 11,3 11,1 5 3 16 9 ZW 995,4 4,5 2,9
22.10.2020 21:00:00 11,0 10,8 5 3 14 8 ZW 995,8 4,0 0,5
22.10.2020 20:00:00 10,4 10,2 5 3 15 8 Z 996,4 26 0,1
22.10.2020 19:00:00 9,7 9,6 3 1 10 5 Z 997,0 5 0,6
22.10.2020 18:00:00 9,3 9,2 0 0 5 3 N 997,5 16 0,0
22.10.2020 17:00:00 9,6 9,3 2 1 15 8 WNW 997,7 7 0,0
22.10.2020 16:00:00 9,9 9,3 9 5 23 13 WNW 997,3 44 0,0
22.10.2020 15:00:00 10,4 9,6 12 6 27 14 WNW 996,4 50 0,0
22.10.2020 14:00:00 10,8 10,0 11 6 29 15 WNW 994,7 50 0,0
22.10.2020 13:00:00 11,1 10,5 10 6 25 13 WNW 993,2 11 0,0
22.10.2020 12:00:00 11,1 10,8 9 5 21 11 WNW 991,9 50 0,2
22.10.2020 11:00:00 11,0 10,8 4 2 11 6 WNW 990,8 13 0,8
22.10.2020 10:00:00 11,1 10,9 3 2 6 3 NNW 990,2 5 0,3
22.10.2020 09:00:00 10,9 10,7 3 2 9 5 O 990,0 13 1,1
22.10.2020 08:00:00 10,5 10,3 6 3 12 6 O 990,3 12 1,7
22.10.2020 07:00:00 10,5 10,3 6 3 11 6 O 990,9 8 2,4
22.10.2020 06:00:00 10,5 10,3 4 2 13 7 O 991,9 8 1,9
22.10.2020 05:00:00 10,6 10,4 6 3 15 8 O 993,1 9 1,7
22.10.2020 04:00:00 10,4 10,2 7 4 17 9 OZO 994,6 5 1,5
22.10.2020 03:00:00 10,5 10,3 7 4 12 6 OZO 996,2 3,8 0,9
22.10.2020 02:00:00 10,3 10,1 5 3 10 5 O 997,6 2,8 0,2
22.10.2020 01:00:00 10,0 9,8 4 2 8 4 O 998,9 1,7 0,1
22.10.2020 00:00:00 9,9 9,7 2 1 9 5 ZO 1000,2 2,2 0,0

tt = temperatuur
td = dauwpunt
ff = windsnelheid
fx = windstoten
dd = windrichting
ppp = luchtdruk
vv = zicht
rr = neerslag

Weerstations in de omgeving